DW3528 Weather Reports


time (UTC)temp
C
wind
direction
speed
KPH
gust
KPH
rain 1hr
cm
rain 24hr
cm
rain mn
cm
humidity
%
barometer
mb
20260510000329 16 169 0.0 8.0 0.00 0.00 0.00 77 1028.9
20260509235825 16 169 0.0 0.0 0.00 0.00 0.00 78 1028.9
20260509235324 16 169 0.0 0.0 0.00 0.00 0.00 79 1028.9
20260509234822 16 169 0.0 0.0 0.00 0.00 0.00 80 1028.9
20260509234322 15 169 1.6 16.1 0.00 0.00 0.00 82 1028.9
20260509233824 15 169 1.6 16.1 0.00 0.00 0.00 83 1028.9
20260509233322 15 166 0.0 8.0 0.00 0.00 0.00 84 1028.9
20260509233047 14 166 0.0 3.2 0.00 0.00 0.00 85 1028.9
20260509232319 14 166 0.0 3.2 0.00 0.00 0.00 86 1028.9
20260509231816 14 166 0.0 11.3 0.00 0.00 0.00 86 1029.0
20260509231312 13 166 0.0 11.3 0.00 0.00 0.00 87 1029.0
20260509230812 13 165 0.0 1.6 0.00 0.00 0.00 88 1028.9
20260509230308 13 165 0.0 1.6 0.00 0.00 0.00 88 1029.0
20260509225807 12 163 0.0 8.0 0.00 0.00 0.00 89 1029.0
20260509225759 12 163 0.0 11.3 0.00 0.00 0.00 89 1029.0
20260509224809 12 163 0.0 11.3 0.00 0.00 0.00 89 1029.0
20260509224308 12 162 0.0 0.0 0.00 0.00 0.00 90 1029.0
20260509224029 12 161 0.0 0.0 0.00 0.00 0.00 90 1029.0
20260509223303 11 160 0.0 0.0 0.00 0.00 0.00 90 1029.0
20260509223018 11 160 0.0 0.0 0.00 0.00 0.00 90 1029.1
20260509222300 11 160 0.0 0.0 0.00 0.00 0.00 90 1029.0
20260509221801 11 160 0.0 0.0 0.00 0.00 0.00 90 1029.0
20260509221259 11 160 0.0 0.0 0.00 0.00 0.00 91 1028.9
20260509220759 10 155 0.0 0.0 0.00 0.00 0.00 90 1028.8
20260509220257 10 144 0.0 0.0 0.00 0.00 0.00 91 1028.8
20260509215757 10 142 0.0 0.0 0.00 0.00 0.00 90 1028.8
20260509215256 10 140 0.0 0.0 0.00 0.00 0.00 91 1028.7
20260509214750 10 133 0.0 1.6 0.00 0.00 0.00 91 1028.7
20260509214244 10 121 0.0 1.6 0.00 0.00 0.00 90 1028.6
20260509213738 10 121 0.0 0.0 0.00 0.00 0.00 91 1028.5
20260509213232 10 121 0.0 0.0 0.00 0.00 0.00 91 1028.5
20260509212953 10 121 0.0 0.0 0.00 0.00 0.00 91 1028.4
20260509212228 9 121 0.0 0.0 0.00 0.00 0.00 90 1028.4
20260509211947 9 121 0.0 0.0 0.00 0.00 0.00 90 1028.3
20260509211225 9 121 0.0 0.0 0.00 0.00 0.00 90 1028.2
20260509210722 9 121 0.0 0.0 0.00 0.00 0.00 90 1028.2
20260509210224 9 121 0.0 0.0 0.00 0.00 0.00 90 1028.1
20260509205722 9 121 0.0 0.0 0.00 0.00 0.00 90 1028.1
20260509205442 9 121 0.0 0.0 0.00 0.00 0.00 90 1028.1
20260509204721 9 121 0.0 0.0 0.00 0.00 0.00 90 1028.0
20260509204221 9 121 0.0 0.0 0.00 0.00 0.00 90 1028.0
20260509203720 9 121 0.0 0.0 0.00 0.00 0.00 90 1028.0
20260509203444 9 121 0.0 0.0 0.00 0.00 0.00 89 1027.9
20260509202718 9 121 0.0 0.0 0.00 0.00 0.00 89 1027.8
20260509202214 9 121 0.0 0.0 0.00 0.00 0.00 89 1027.7
20260509201715 9 121 0.0 0.0 0.00 0.00 0.00 89 1027.6
20260509201216 9 121 0.0 0.0 0.00 0.00 0.00 89 1027.6
20260509200712 9 121 0.0 0.0 0.00 0.00 0.00 89 1027.5
20260509200209 9 121 0.0 0.0 0.00 0.00 0.00 89 1027.4
20260509195708 9 121 0.0 0.0 0.00 0.00 0.00 89 1027.4
20260509195210 10 121 0.0 0.0 0.00 0.00 0.00 89 1027.2
20260509194707 10 121 0.0 0.0 0.00 0.00 0.00 89 1027.2
20260509194205 10 121 0.0 3.2 0.00 0.00 0.00 89 1027.1
20260509193924 10 121 0.0 3.2 0.00 0.00 0.00 89 1027.1
20260509193200 10 120 0.0 3.2 0.00 0.00 0.00 89 1027.0
20260509192659 10 119 0.0 3.2 0.00 0.00 0.00 89 1027.0
20260509192158 10 119 0.0 1.6 0.00 0.00 0.00 89 1026.9
20260509191655 10 118 0.0 0.0 0.00 0.00 0.00 89 1026.8
20260509191413 10 118 0.0 0.0 0.00 0.00 0.00 89 1026.8
20260509190656 10 118 0.0 0.0 0.00 0.00 0.00 89 1026.8
20260509190152 10 117 0.0 0.0 0.00 0.00 0.00 89 1026.7
20260509185650 10 118 0.0 0.0 0.00 0.00 0.00 89 1026.7
20260509185149 10 117 0.0 0.0 0.00 0.00 0.00 89 1026.7
20260509184649 10 117 0.0 0.0 0.00 0.00 0.00 89 1026.6
20260509184149 10 118 0.0 0.0 0.00 0.00 0.00 89 1026.6
20260509183908 10 117 0.0 0.0 0.00 0.00 0.00 88 1026.6
20260509183148 10 118 0.0 0.0 0.00 0.00 0.00 88 1026.5
20260509182648 10 118 0.0 0.0 0.00 0.00 0.00 88 1026.5
20260509182407 10 117 0.0 0.0 0.00 0.00 0.00 88 1026.4
20260509181649 10 118 0.0 0.0 0.00 0.00 0.00 88 1026.4
20260509181148 10 117 0.0 0.0 0.00 0.00 0.00 88 1026.3
20260509180648 10 117 0.0 0.0 0.00 0.00 0.00 88 1026.4
20260509180147 10 117 0.0 0.0 0.00 0.00 0.00 88 1026.4
20260509175646 10 117 0.0 0.0 0.00 0.00 0.00 88 1026.3
20260509175143 10 117 0.0 0.0 0.00 0.00 0.00 88 1026.2
20260509174643 10 118 0.0 0.0 0.00 0.00 0.00 88 1026.2
20260509174146 10 117 0.0 0.0 0.00 0.00 0.00 88 1026.2
20260509173644 10 117 0.0 0.0 0.00 0.00 0.00 88 1026.2
20260509173144 10 117 0.0 0.0 0.00 0.00 0.00 88 1026.2
20260509172645 10 118 0.0 0.0 0.00 0.00 0.00 88 1026.2
20260509172139 10 118 0.0 0.0 0.00 0.00 0.00 88 1026.2
20260509171901 10 117 0.0 0.0 0.00 0.00 0.00 88 1026.2
20260509171140 10 117 0.0 0.0 0.00 0.00 0.00 87 1026.1
20260509170640 10 117 0.0 0.0 0.00 0.00 0.00 87 1026.2
20260509170139 10 117 0.0 0.0 0.00 0.00 0.00 87 1026.2
20260509165640 10 118 0.0 0.0 0.00 0.00 0.00 87 1026.1
20260509165142 10 118 0.0 0.0 0.00 0.00 0.00 87 1026.2
20260509164640 10 117 0.0 0.0 0.00 0.00 0.00 87 1026.1
20260509164142 10 117 0.0 0.0 0.00 0.00 0.00 87 1026.2
20260509163640 10 117 0.0 0.0 0.00 0.00 0.00 87 1026.2
20260509163359 10 118 0.0 0.0 0.00 0.00 0.00 87 1026.2
20260509162902 10 117 0.0 0.0 0.00 0.00 0.00 87 1026.1
20260509162139 10 118 0.0 0.0 0.00 0.00 0.00 87 1026.1
20260509161639 11 117 0.0 0.0 0.00 0.00 0.00 87 1026.2
20260509161137 11 118 0.0 0.0 0.00 0.00 0.00 87 1026.2
20260509160637 11 118 0.0 0.0 0.00 0.00 0.00 87 1026.2
20260509160137 11 118 0.0 0.0 0.00 0.00 0.00 87 1026.2
20260509155638 11 117 0.0 0.0 0.00 0.00 0.00 87 1026.2
20260509155402 11 117 0.0 0.0 0.00 0.00 0.00 87 1026.1
20260509155307 11 118 0.0 0.0 0.00 0.00 0.00 87 1026.1
20260509154137 11 118 0.0 0.0 0.00 0.00 0.00 86 1026.1
20260509153637 11 118 0.0 0.0 0.00 0.00 0.00 86 1026.2
20260509153136 11 117 0.0 0.0 0.00 0.00 0.00 86 1026.2
20260509152638 11 117 0.0 0.0 0.00 0.00 0.00 86 1026.2
20260509152401 11 117 0.0 0.0 0.00 0.00 0.00 86 1026.3
20260509151638 11 117 0.0 0.0 0.00 0.00 0.00 86 1026.3
20260509151138 11 117 0.0 0.0 0.00 0.00 0.00 86 1026.3
20260509150637 11 117 0.0 0.0 0.00 0.00 0.00 85 1026.3
20260509150136 11 117 0.0 0.0 0.00 0.00 0.00 85 1026.3
20260509145637 11 117 0.0 0.0 0.00 0.00 0.00 85 1026.2
20260509145138 11 117 0.0 0.0 0.00 0.00 0.00 85 1026.2
20260509144639 11 117 0.0 0.0 0.00 0.00 0.00 85 1026.2
20260509144137 11 118 0.0 0.0 0.00 0.00 0.00 84 1026.2
20260509143636 11 118 0.0 0.0 0.00 0.00 0.00 84 1026.2
20260509143134 11 117 0.0 0.0 0.00 0.00 0.00 84 1026.2
20260509142635 11 117 0.0 0.0 0.00 0.00 0.00 84 1026.1
20260509142128 11 118 0.0 0.0 0.00 0.00 0.00 84 1026.2
20260509141622 11 117 0.0 0.0 0.00 0.00 0.00 84 1026.1
20260509141120 11 118 0.0 0.0 0.00 0.00 0.00 83 1026.1
20260509140620 11 118 0.0 0.0 0.00 0.00 0.00 83 1026.1
20260509140120 11 117 0.0 0.0 0.00 0.00 0.00 83 1026.1
20260509135619 12 117 0.0 0.0 0.00 0.00 0.00 83 1026.1
20260509135119 12 118 0.0 0.0 0.00 0.00 0.00 83 1026.2
20260509134617 12 118 0.0 0.0 0.00 0.00 0.00 83 1026.1
20260509134119 12 117 0.0 0.0 0.00 0.00 0.00 83 1026.2
20260509133615 12 118 0.0 0.0 0.00 0.00 0.00 83 1026.2
20260509133113 12 118 0.0 0.0 0.00 0.00 0.00 82 1026.2
20260509132613 12 117 0.0 0.0 0.00 0.00 0.00 82 1026.2
20260509132113 12 118 0.0 0.0 0.00 0.00 0.00 82 1026.2
20260509131610 12 117 0.0 0.0 0.00 0.00 0.00 81 1026.2
20260509131559 12 118 0.0 0.0 0.00 0.00 0.00 81 1026.3
20260509130829 12 118 0.0 0.0 0.00 0.00 0.00 81 1026.2
20260509130109 12 117 0.0 0.0 0.00 0.00 0.00 81 1026.2
20260509125609 12 118 0.0 0.0 0.00 0.00 0.00 81 1026.2
20260509125329 12 117 0.0 0.0 0.00 0.00 0.00 81 1026.3
20260509124606 12 117 0.0 0.0 0.00 0.00 0.00 81 1026.3
20260509124108 12 117 0.0 0.0 0.00 0.00 0.00 80 1026.3
20260509124054 12 117 0.0 0.0 0.00 0.00 0.00 80 1026.3
20260509123107 13 118 0.0 0.0 0.00 0.00 0.00 80 1026.3
20260509122609 13 118 0.0 0.0 0.00 0.00 0.00 80 1026.3
20260509122105 13 117 0.0 0.0 0.00 0.00 0.00 80 1026.4
20260509121606 13 118 0.0 0.0 0.00 0.00 0.00 80 1026.4
20260509121105 13 117 0.0 0.0 0.00 0.00 0.00 80 1026.4
20260509120605 13 118 0.0 0.0 0.00 0.00 0.00 80 1026.3
20260509120321 13 117 0.0 0.0 0.00 0.00 0.00 80 1026.4
20260509115827 13 118 0.0 0.0 0.00 0.00 0.00 80 1026.3
20260509115104 13 117 0.0 0.0 0.00 0.00 0.00 80 1026.3
20260509114605 13 117 0.0 0.0 0.00 0.00 0.00 80 1026.3
20260509114105 13 118 0.0 0.0 0.00 0.00 0.00 79 1026.3
20260509113559 13 118 0.0 0.0 0.00 0.00 0.00 79 1026.3
20260509113059 13 118 0.0 0.0 0.00 0.00 0.00 79 1026.3
20260509112601 13 117 0.0 0.0 0.00 0.00 0.00 79 1026.2
20260509112101 13 117 0.0 0.0 0.00 0.00 0.00 79 1026.3
20260509111600 13 117 0.0 0.0 0.00 0.00 0.00 79 1026.2
20260509111058 13 118 0.0 0.0 0.00 0.00 0.00 78 1026.2
20260509110600 13 118 0.0 0.0 0.00 0.00 0.00 78 1026.2
20260509110100 13 118 0.0 0.0 0.00 0.00 0.00 78 1026.2
20260509105601 13 118 0.0 0.0 0.00 0.00 0.00 78 1026.2
20260509105059 13 118 0.0 0.0 0.00 0.00 0.00 78 1026.2
20260509104559 13 117 0.0 0.0 0.00 0.00 0.00 78 1026.1
20260509104058 13 117 0.0 0.0 0.00 0.00 0.00 77 1026.1
20260509103557 13 118 0.0 0.0 0.00 0.00 0.00 77 1026.1
20260509103056 13 117 0.0 0.0 0.00 0.00 0.00 77 1026.0
20260509102559 14 117 0.0 0.0 0.00 0.00 0.00 76 1026.0
20260509102550 14 118 0.0 0.0 0.00 0.00 0.00 76 1025.9
20260509101557 14 117 0.0 0.0 0.00 0.00 0.00 76 1025.9
20260509101059 14 117 0.0 0.0 0.00 0.00 0.00 75 1025.9
20260509100557 14 117 0.0 0.0 0.00 0.00 0.00 75 1025.9
20260509100057 14 117 0.0 0.0 0.00 0.00 0.00 74 1025.8
20260509095557 14 118 0.0 0.0 0.00 0.00 0.00 74 1025.8
20260509095056 15 117 0.0 0.0 0.00 0.00 0.00 73 1025.8
20260509094821 15 117 0.0 0.0 0.00 0.00 0.00 72 1025.7
20260509094056 15 117 0.0 0.0 0.00 0.00 0.00 72 1025.6
20260509093557 15 117 0.0 0.0 0.00 0.00 0.00 72 1025.6
20260509093548 15 117 0.0 0.0 0.00 0.00 0.00 71 1025.5
20260509092558 15 117 0.0 0.0 0.00 0.00 0.00 71 1025.5
20260509092057 15 117 0.0 0.0 0.00 0.00 0.00 70 1025.4
20260509091558 16 117 0.0 0.0 0.00 0.00 0.00 69 1025.3
20260509091057 16 118 0.0 0.0 0.00 0.00 0.00 68 1025.3
20260509090830 16 117 0.0 0.0 0.00 0.00 0.00 67 1025.2
20260509090058 16 117 0.0 0.0 0.00 0.00 0.00 66 1025.1
20260509085554 16 118 0.0 0.0 0.00 0.00 0.00 66 1025.1
20260509085540 16 117 0.0 0.0 0.00 0.00 0.00 65 1025.0
20260509084554 17 118 0.0 0.0 0.00 0.00 0.00 64 1024.9
20260509084050 17 117 0.0 0.0 0.00 0.00 0.00 64 1024.8
20260509083550 17 117 0.0 0.0 0.00 0.00 0.00 64 1024.8
20260509083319 17 117 0.0 0.0 0.00 0.00 0.00 64 1024.7
20260509082551 17 117 0.0 0.0 0.00 0.00 0.00 65 1024.7
20260509082046 17 117 0.0 0.0 0.00 0.00 0.00 65 1024.6
20260509081539 17 117 0.0 0.0 0.00 0.00 0.00 65 1024.5
20260509081518 17 117 0.0 0.0 0.00 0.00 0.00 64 1024.4
20260509080528 17 117 0.0 0.0 0.00 0.00 0.00 64 1024.4
20260509080022 17 117 0.0 0.0 0.00 0.00 0.00 64 1024.3
20260509075516 17 117 0.0 0.0 0.00 0.00 0.00 64 1024.2
20260509075010 18 117 0.0 0.0 0.00 0.00 0.00 63 1024.2
20260509074503 18 117 0.0 0.0 0.00 0.00 0.00 63 1024.1
20260509073959 18 118 0.0 0.0 0.00 0.00 0.00 63 1024.1
20260509073452 18 117 0.0 0.0 0.00 0.00 0.00 63 1024.0
20260509072945 18 117 0.0 0.0 0.00 0.00 0.00 62 1023.9
20260509072441 18 117 0.0 0.0 0.00 0.00 0.00 62 1023.9
20260509071940 18 118 0.0 0.0 0.00 0.00 0.00 62 1023.9
20260509071440 18 117 0.0 0.0 0.00 0.00 0.00 61 1023.8
20260509070941 18 117 0.0 0.0 0.00 0.00 0.00 61 1023.7
20260509070440 18 117 0.0 0.0 0.00 0.00 0.00 61 1023.7
20260509065941 18 118 0.0 0.0 0.00 0.00 0.00 60 1023.6
20260509065441 19 117 0.0 0.0 0.00 0.00 0.00 60 1023.5
20260509064941 19 118 0.0 0.0 0.00 0.00 0.00 60 1023.5
20260509064438 19 118 0.0 1.6 0.00 0.00 0.00 59 1023.4
20260509063940 19 118 0.0 1.6 0.00 0.00 0.00 58 1023.4
20260509063440 20 117 0.0 1.6 0.00 0.00 0.00 58 1023.3
20260509062937 20 118 0.0 1.6 0.00 0.00 0.00 57 1023.3
20260509062438 20 117 0.0 1.6 0.00 0.00 0.00 57 1023.1
20260509061939 20 117 0.0 14.5 0.00 0.00 0.00 56 1023.1
20260509061702 20 117 0.0 14.5 0.00 0.00 0.00 55 1023.0
20260509060934 20 115 0.0 0.0 0.00 0.00 0.00 55 1023.0
20260509060434 20 121 0.0 3.2 0.00 0.00 0.00 54 1022.9
20260509055935 21 121 0.0 3.2 0.00 0.00 0.00 54 1022.9
20260509055429 21 122 0.0 4.8 0.00 0.00 0.00 53 1022.8
20260509054924 21 123 0.0 4.8 0.00 0.00 0.00 53 1022.8
20260509054419 21 150 0.0 6.4 0.00 0.00 0.00 52 1022.8
20260509053912 21 160 0.0 6.4 0.00 0.00 0.00 51 1022.7
20260509053406 22 266 0.0 0.0 0.00 0.00 0.00 50 1022.6
20260509052951 22 266 0.0 0.0 0.00 0.00 0.00 49 1022.6
20260509051848 22 266 0.0 0.0 0.00 0.00 0.00 47 1022.6
20260509051558 23 266 0.0 0.0 0.00 0.00 0.00 43 1022.5
20260509050842 22 266 0.0 0.0 0.00 0.00 0.00 43 1022.5
20260509050339 22 266 0.0 0.0 0.00 0.00 0.00 43 1022.5
20260509045838 22 266 0.0 0.0 0.00 0.00 0.00 42 1022.5
20260509045334 23 266 0.0 0.0 0.00 0.00 0.00 42 1022.5
20260509044836 23 266 0.0 0.0 0.00 0.00 0.00 43 1022.5
20260509044335 23 266 0.0 0.0 0.00 0.00 0.00 43 1022.5
20260509043832 23 266 0.0 0.0 0.00 0.00 0.00 43 1022.5
20260509043330 23 266 0.0 0.0 0.00 0.00 0.00 42 1022.5
20260509042832 23 266 0.0 0.0 0.00 0.00 0.00 42 1022.5
20260509042332 23 266 0.0 0.0 0.00 0.00 0.00 42 1022.5
20260509041830 23 266 1.6 20.9 0.00 0.00 0.00 44 1022.5
20260509041328 23 266 1.6 20.9 0.00 0.00 0.00 43 1022.5
20260509040827 23 265 0.0 3.2 0.00 0.00 0.00 43 1022.5
20260509040323 23 265 0.0 4.8 0.00 0.00 0.00 44 1022.5
20260509035822 23 265 0.0 4.8 0.00 0.00 0.00 44 1022.5
20260509035324 22 263 0.0 1.6 0.00 0.00 0.00 43 1022.5
20260509034822 22 263 0.0 3.2 0.00 0.00 0.00 44 1022.5
20260509034544 22 263 0.0 3.2 0.00 0.00 0.00 44 1022.6
20260509033824 22 263 1.6 24.1 0.00 0.00 0.00 44 1022.6
20260509033318 22 264 3.2 24.1 0.00 0.00 0.00 43 1022.6
20260509033252 22 266 1.6 11.3 0.00 0.00 0.00 43 1022.6
20260509032307 22 264 0.0 3.2 0.00 0.00 0.00 44 1022.7
20260509031759 22 264 0.0 4.8 0.00 0.00 0.00 44 1022.7
20260509031253 22 264 0.0 4.8 0.00 0.00 0.00 44 1022.8
20260509030748 22 266 1.6 11.3 0.00 0.00 0.00 44 1022.9
20260509030242 22 269 3.2 25.7 0.00 0.00 0.00 44 1022.9
20260509025959 22 263 3.2 25.7 0.00 0.00 0.00 44 1023.0
20260509025230 22 251 1.6 17.7 0.00 0.00 0.00 44 1023.0
20260509024723 22 260 1.6 12.9 0.00 0.00 0.00 44 1023.1
20260509024218 22 301 1.6 12.9 0.00 0.00 0.00 44 1023.2
20260509023711 22 264 0.0 11.3 0.00 0.00 0.00 44 1023.3
20260509023206 22 261 0.0 11.3 0.00 0.00 0.00 45 1023.4
20260509022659 22 280 0.0 0.0 0.00 0.00 0.00 45 1023.4
20260509022154 22 280 0.0 0.0 0.00 0.00 0.00 46 1023.6
20260509021648 22 280 0.0 3.2 0.00 0.00 0.00 46 1023.7
20260509021142 22 280 0.0 3.2 0.00 0.00 0.00 46 1023.7
20260509020636 21 280 0.0 3.2 0.00 0.00 0.00 47 1023.8
20260509020130 21 281 0.0 0.0 0.00 0.00 0.00 47 1023.9
20260509015623 21 281 0.0 0.0 0.00 0.00 0.00 47 1024.0
20260509015119 21 281 0.0 0.0 0.00 0.00 0.00 48 1024.1
20260509014611 21 281 0.0 0.0 0.00 0.00 0.00 49 1024.1
20260509014106 21 281 0.0 0.0 0.00 0.00 0.00 49 1024.2
20260509013831 20 281 0.0 6.4 0.00 0.00 0.00 50 1024.3
20260509013323 20 281 0.0 6.4 0.00 0.00 0.00 50 1024.3
20260509012812 20 281 0.0 14.5 0.00 0.00 0.00 52 1024.3
20260509012041 20 281 1.6 14.5 0.00 0.00 0.00 52 1024.3
20260509011535 20 279 0.0 12.9 0.00 0.00 0.00 52 1024.4
20260509011253 20 278 0.0 11.3 0.00 0.00 0.00 53 1024.3
20260509010524 20 278 0.0 11.3 0.00 0.00 0.00 53 1024.4
20260509010020 20 271 0.0 0.0 0.00 0.00 0.00 54 1024.5
20260509005512 19 271 0.0 11.3 0.00 0.00 0.00 56 1024.6
20260509005005 19 271 0.0 11.3 0.00 0.00 0.00 57 1024.7
20260509004459 19 271 0.0 11.3 0.00 0.00 0.00 57 1024.7
20260509003954 18 271 1.6 11.3 0.00 0.00 0.00 58 1024.7
20260509003448 18 262 0.0 11.3 0.00 0.00 0.00 59 1024.7
20260509003207 18 263 1.6 11.3 0.00 0.00 0.00 61 1024.8
20260509002436 18 263 1.6 11.3 0.00 0.00 0.00 62 1024.8
20260509001930 18 263 1.6 12.9 0.00 0.00 0.00 63 1024.8
20260509001424 17 263 1.6 12.9 0.00 0.00 0.00 63 1024.8
20260509000918 17 263 1.6 11.3 0.00 0.00 0.00 64 1024.8